| time (UTC) | temp F | wind direction | speed knots | gust knots | rain 1hr in | rain 24hr in | rain mn in | humidity % | barometer mb |
| 20260507204556 | 55 | 171 | 0.0 | 0.0 | 0.00 | 0.00 | 0.00 | 83 | 1008.0 |
| 20260507203051 | 56 | 171 | 0.0 | 0.0 | 0.00 | 0.00 | 0.00 | 82 | 1008.4 |
| 20260507201545 | 56 | 171 | 0.0 | 0.0 | 0.00 | 0.00 | 0.00 | 84 | 1008.0 |
| 20260507200100 | 56 | 171 | 0.9 | 1.7 | 0.00 | 0.00 | 0.00 | 84 | 1008.0 |
| 20260507194544 | 56 | 171 | 0.0 | 0.0 | 0.00 | 0.00 | 0.00 | 83 | 1008.3 |
| 20260507193106 | 57 | 171 | 0.0 | 0.0 | 0.00 | 0.00 | 0.00 | 79 | 1008.6 |
| 20260507191552 | 57 | 171 | 0.0 | 0.0 | 0.00 | 0.00 | 0.00 | 75 | 1008.2 |
| 20260507190042 | 58 | 171 | 0.0 | 0.0 | 0.00 | 0.00 | 0.00 | 70 | 1008.3 |
| 20260507184541 | 58 | 171 | 0.0 | 0.9 | 0.00 | 0.00 | 0.00 | 71 | 1008.5 |
| 20260507183044 | 58 | 171 | 0.0 | 1.7 | 0.00 | 0.00 | 0.00 | 72 | 1008.4 |
| 20260507181541 | 57 | 171 | 0.0 | 0.9 | 0.00 | 0.00 | 0.00 | 71 | 1008.5 |
| 20260507180040 | 57 | 171 | 0.0 | 0.0 | 0.00 | 0.00 | 0.00 | 74 | 1009.1 |
| 20260507174539 | 58 | 171 | 0.0 | 0.0 | 0.00 | 0.00 | 0.00 | 72 | 1009.3 |
| 20260507173041 | 58 | 171 | 0.0 | 1.7 | 0.00 | 0.00 | 0.00 | 70 | 1009.8 |
| 20260507171538 | 58 | 166 | 0.0 | 2.6 | 0.00 | 0.00 | 0.00 | 69 | 1009.5 |
| 20260507170037 | 58 | 161 | 0.9 | 1.7 | 0.00 | 0.01 | 0.00 | 71 | 1009.8 |
| 20260507164537 | 58 | 184 | 0.0 | 1.7 | 0.00 | 0.01 | 0.00 | 69 | 1009.8 |
| 20260507163038 | 58 | 184 | 0.0 | 0.0 | 0.00 | 0.01 | 0.00 | 69 | 1009.8 |
| 20260507161534 | 58 | 184 | 0.0 | 0.9 | 0.00 | 0.01 | 0.00 | 70 | 1009.8 |
| 20260507160056 | 58 | 183 | 0.0 | 1.7 | 0.00 | 0.01 | 0.00 | 70 | 1009.9 |
| 20260507154535 | 58 | 183 | 0.0 | 1.7 | 0.00 | 0.01 | 0.00 | 69 | 1010.1 |
| 20260507153034 | 58 | 183 | 0.0 | 1.7 | 0.00 | 0.01 | 0.00 | 70 | 1010.2 |
| 20260507151532 | 58 | 296 | 0.0 | 2.6 | 0.00 | 0.01 | 0.00 | 68 | 1010.7 |
| 20260507150031 | 58 | 230 | 0.0 | 1.7 | 0.00 | 0.01 | 0.00 | 69 | 1010.6 |
| 20260507144542 | 58 | 318 | 0.0 | 1.7 | 0.00 | 0.01 | 0.00 | 70 | 1010.5 |
| 20260507143032 | 58 | 325 | 0.0 | 2.6 | 0.00 | 0.01 | 0.00 | 70 | 1010.5 |
| 20260507141529 | 58 | 351 | 0.0 | 1.7 | 0.00 | 0.01 | 0.00 | 68 | 1010.6 |
| 20260507140029 | 58 | 201 | 0.0 | 4.3 | 0.00 | 0.01 | 0.00 | 70 | 1010.5 |
| 20260507134524 | 57 | 163 | 0.0 | 1.7 | 0.00 | 0.01 | 0.00 | 74 | 1010.4 |
| 20260507133024 | 57 | 264 | 0.0 | 1.7 | 0.00 | 0.01 | 0.00 | 72 | 1010.3 |
| 20260507131528 | 57 | 227 | 0.0 | 4.3 | 0.00 | 0.01 | 0.00 | 74 | 1010.3 |
| 20260507130030 | 57 | 12 | 0.0 | 1.7 | 0.00 | 0.01 | 0.00 | 75 | 1010.0 |
| 20260507124520 | 57 | 11 | 0.0 | 1.7 | 0.00 | 0.01 | 0.00 | 78 | 1010.3 |
| 20260507123027 | 56 | 5 | 0.0 | 2.6 | 0.00 | 0.01 | 0.00 | 77 | 1010.3 |
| 20260507121518 | 56 | 219 | 0.0 | 0.9 | 0.00 | 0.01 | 0.00 | 78 | 1010.2 |
| 20260507120015 | 57 | 219 | 0.0 | 2.6 | 0.00 | 0.01 | 0.00 | 83 | 1010.3 |
| 20260507114512 | 58 | 67 | 0.0 | 2.6 | 0.00 | 0.01 | 0.00 | 84 | 1010.2 |
| 20260507113010 | 58 | 28 | 0.0 | 1.7 | 0.00 | 0.01 | 0.00 | 83 | 1009.9 |
| 20260507111510 | 58 | 265 | 0.0 | 2.6 | 0.00 | 0.01 | 0.00 | 84 | 1010.0 |
| 20260507110006 | 59 | 348 | 0.0 | 2.6 | 0.00 | 0.01 | 0.00 | 86 | 1009.6 |
| 20260507104507 | 59 | 93 | 0.0 | 2.6 | 0.00 | 0.01 | 0.00 | 86 | 1009.1 |
| 20260507103006 | 59 | 148 | 0.0 | 2.6 | 0.00 | 0.01 | 0.00 | 87 | 1009.4 |
| 20260507101508 | 59 | 194 | 0.0 | 1.7 | 0.00 | 0.01 | 0.00 | 86 | 1009.3 |
| 20260507100002 | 59 | 5 | 0.0 | 2.6 | 0.00 | 0.01 | 0.00 | 85 | 1009.1 |
| 20260507094559 | 59 | 46 | 0.0 | 2.6 | 0.00 | 0.01 | 0.00 | 84 | 1009.2 |
| 20260507093102 | 59 | 304 | 0.9 | 2.6 | 0.00 | 0.01 | 0.00 | 84 | 1009.0 |
| 20260507091558 | 59 | 35 | 0.0 | 3.5 | 0.00 | 0.01 | 0.00 | 85 | 1008.8 |
| 20260507084554 | 60 | 350 | 0.0 | 2.6 | 0.00 | 0.01 | 0.00 | 88 | 1008.4 |
| 20260507083049 | 61 | 5 | 0.0 | 3.5 | 0.00 | 0.01 | 0.00 | 88 | 1008.5 |
| 20260507081547 | 62 | 74 | 0.0 | 6.1 | 0.00 | 0.01 | 0.00 | 87 | 1008.4 |
| 20260507080046 | 62 | 57 | 0.0 | 2.6 | 0.00 | 0.01 | 0.00 | 86 | 1008.3 |
| 20260507074545 | 63 | 163 | 0.0 | 1.7 | 0.00 | 0.01 | 0.00 | 86 | 1008.0 |
| 20260507073039 | 64 | 164 | 0.0 | 2.6 | 0.00 | 0.01 | 0.00 | 86 | 1007.5 |
| 20260507071534 | 66 | 164 | 0.0 | 1.7 | 0.00 | 0.01 | 0.00 | 88 | 1007.1 |
| 20260507070033 | 66 | 155 | 0.0 | 0.0 | 0.00 | 0.01 | 0.00 | 87 | 1006.8 |
| 20260507064530 | 67 | 155 | 0.0 | 0.0 | 0.00 | 0.01 | 0.00 | 86 | 1006.7 |
| 20260507063031 | 68 | 155 | 0.0 | 0.9 | 0.00 | 0.01 | 0.00 | 85 | 1006.8 |
| 20260507061527 | 69 | 155 | 0.0 | 0.0 | 0.00 | 0.01 | 0.00 | 84 | 1006.7 |
| 20260507060027 | 69 | 155 | 0.0 | 0.0 | 0.00 | 0.01 | 0.00 | 83 | 1007.2 |
| 20260507054521 | 69 | 155 | 0.0 | 3.5 | 0.00 | 0.01 | 0.00 | 83 | 1007.1 |
| 20260507053020 | 69 | 120 | 2.6 | 6.1 | 0.00 | 0.01 | 0.00 | 84 | 1007.2 |
| 20260507051519 | 69 | 121 | 2.6 | 7.0 | 0.00 | 0.01 | 0.00 | 83 | 1007.2 |
| 20260507050016 | 69 | 133 | 3.5 | 8.7 | 0.00 | 0.01 | 0.00 | 83 | 1007.4 |
| 20260507044513 | 69 | 134 | 2.6 | 7.8 | 0.00 | 0.01 | 0.00 | 82 | 1007.5 |
| 20260507043013 | 69 | 132 | 5.2 | 9.6 | 0.00 | 0.01 | 0.00 | 82 | 1007.4 |
| 20260507041531 | 69 | 113 | 4.3 | 8.7 | 0.00 | 0.01 | 0.00 | 82 | 1007.4 |
| 20260507040011 | 69 | 125 | 3.5 | 7.0 | 0.00 | 0.01 | 0.01 | 82 | 1007.4 |
| 20260507034512 | 69 | 130 | 4.3 | 11.3 | 0.00 | 0.01 | 0.01 | 82 | 1007.2 |
| 20260507033011 | 69 | 124 | 5.2 | 9.6 | 0.00 | 0.01 | 0.01 | 82 | 1007.3 |
| 20260507031507 | 69 | 140 | 4.3 | 8.7 | 0.00 | 0.01 | 0.01 | 82 | 1007.2 |
| 20260507030006 | 69 | 125 | 5.2 | 7.0 | 0.00 | 0.01 | 0.01 | 82 | 1007.2 |
| 20260507024506 | 69 | 134 | 2.6 | 9.6 | 0.00 | 0.01 | 0.01 | 81 | 1007.4 |
| 20260507023005 | 69 | 134 | 2.6 | 7.0 | 0.00 | 0.01 | 0.01 | 81 | 1007.5 |
| 20260507021505 | 69 | 143 | 3.5 | 7.8 | 0.00 | 0.01 | 0.01 | 81 | 1007.7 |
| 20260507020005 | 69 | 132 | 6.1 | 8.7 | 0.00 | 0.01 | 0.01 | 81 | 1007.5 |
| 20260507014514 | 69 | 134 | 5.2 | 9.6 | 0.00 | 0.01 | 0.01 | 81 | 1007.3 |
| 20260507013015 | 69 | 133 | 4.3 | 7.8 | 0.00 | 0.01 | 0.01 | 81 | 1007.5 |
| 20260507011504 | 69 | 134 | 4.3 | 7.8 | 0.00 | 0.01 | 0.01 | 81 | 1007.8 |
| 20260507010002 | 69 | 140 | 3.5 | 7.0 | 0.00 | 0.01 | 0.01 | 80 | 1007.7 |
| 20260507004600 | 69 | 126 | 3.5 | 6.1 | 0.00 | 0.01 | 0.01 | 80 | 1007.8 |
| 20260507003059 | 70 | 126 | 3.5 | 7.0 | 0.00 | 0.01 | 0.01 | 78 | 1007.6 |
| 20260507001620 | 70 | 122 | 4.3 | 7.0 | 0.00 | 0.01 | 0.01 | 78 | 1007.4 |
| 20260507000101 | 71 | 132 | 4.3 | 7.8 | 0.00 | 0.01 | 0.01 | 75 | 1007.5 |
| 20260506234557 | 71 | 132 | 3.5 | 7.8 | 0.00 | 0.01 | 0.01 | 75 | 1007.3 |
| 20260506233107 | 72 | 136 | 4.3 | 7.8 | 0.00 | 0.01 | 0.01 | 73 | 1007.6 |
| 20260506231556 | 72 | 124 | 3.5 | 9.6 | 0.00 | 0.01 | 0.01 | 72 | 1007.4 |
| 20260506230157 | 72 | 135 | 4.3 | 8.7 | 0.00 | 0.01 | 0.01 | 72 | 1007.5 |
| 20260506224555 | 72 | 140 | 5.2 | 11.3 | 0.00 | 0.01 | 0.01 | 72 | 1007.3 |
| 20260506223108 | 72 | 138 | 6.1 | 10.4 | 0.00 | 0.01 | 0.01 | 73 | 1007.3 |
| 20260506221559 | 72 | 165 | 4.3 | 9.6 | 0.00 | 0.01 | 0.01 | 74 | 1007.6 |
| 20260506220051 | 72 | 120 | 2.6 | 8.7 | 0.00 | 0.01 | 0.01 | 74 | 1007.5 |
| 20260506214600 | 72 | 120 | 2.6 | 7.0 | 0.00 | 0.01 | 0.01 | 74 | 1007.6 |
| 20260506213050 | 71 | 129 | 3.5 | 9.6 | 0.00 | 0.01 | 0.01 | 75 | 1007.4 |
| 20260506211547 | 71 | 127 | 3.5 | 8.7 | 0.00 | 0.01 | 0.01 | 76 | 1007.3 |
| 20260506210046 | 70 | 127 | 1.7 | 7.0 | 0.00 | 0.01 | 0.01 | 76 | 1007.8 |